Marathon, FL (33050)

8:08 PM EST on February 09, 2016 (GMT -0500)
APRSWXNET | | Change Station
CLOSE
Current Station
Personal Weather Station
Location: Marathon, FL
Elevation: 15 ft
Nearby Weather Stations

Elev 15 ft 24.74 °N, 80.98 °W | Updated 25 minutes ago

Overcast
Overcast
63 °F
Feels Like 63 °F
N
8
Wind Variable Wind from WSW
Gusts 15.0 mph

Today
High -- | Low -- °F
--% Chance of Precip.
Yesterday
High -- | Low -- °F
Precip. -- in
Pressure 30.12 in
Visibility 10.0 miles
Clouds Few 4000 ft
Mostly Cloudy 6000 ft
Mostly Cloudy 12000 ft
Dew Point 55 °F
Humidity 75%
Rainfall in
Snow Depth Not available.
7:02 AM 6:14 PM
Waxing Crescent, 3% visible
METAR KNQX 100053Z 30006KT 10SM FEW040 BKN060 BKN120 18/12 A3012 RMK AO2 SLP199 T01830122 $
Pressure 30.12 in
Visibility 10.0 miles
Clouds Few 4000 ft
Mostly Cloudy 6000 ft
Mostly Cloudy 12000 ft
Dew Point 55 °F
Humidity 75%
Rainfall in
Snow Depth Not available.
7:02 AM 6:14 PM
Waxing Crescent, 3% visible
METAR KNQX 100053Z 30006KT 10SM FEW040 BKN060 BKN120 18/12 A3012 RMK AO2 SLP199 T01830122 $

10-Day Weather Forecast

Almanac

Astronomy

Feb. 09, 2016 Rise Set
Actual Time
Civil Twilight
Nautical Twilight
Astronomical Twilight
Moon
Length of Visible Light
Length of Day
Tomorrow will be .
, % of the Moon is Illuminated

Today's Extremes

State Highs State Lows

Community

WunderPhotos

Upload Photos

1,891,752 photos uploaded!

WunderBlog® & News

Nearby

Air Quality

  Air Quality AQ Index Pollutant
Not available.

Snow Depth

Station Depth Elevation

Earthquake Activity

City Distance Mag. Time & Date
Minimum magnitude displayed is 2.5.

Coastal Water Temperatures

Place Temperature

Stations

Nearby Weather Stations

Station Location Temp. Windchill Dew Point Humidity Wind Precip. Elev Updated Type
                   

Watches & Warnings

There are currently no watches in effect.